Simultaneous Nadir Overpasses (SNOs) Predictions

Prediction of SNOs between GOES-14 and AQUA Satellite Orbit:

Table of predicted SNOs for the next 14.0 days since TLE Epoch: 8/8/2020
Index Date Time (GOES-14) GOES-14 Lat,Lon AQUA Lat,Lon Distance(km) Time Diff (sec)
1 08/08/2020 08:14:59 -0.40,-104.41 -1.26,-100.33 463.44 80
2 08/08/2020 20:36:24 0.42,-104.59 0.19,-105.53 107.11 80
3 08/10/2020 20:26:54 0.42,-104.61 0.86,-102.59 230.32 80
4 08/11/2020 08:48:09 -0.44,-104.44 0.27,-107.73 374.74 80
5 08/13/2020 08:35:58 -0.44,-104.45 -0.35,-104.78 37.93 80
6 08/15/2020 08:21:08 -0.44,-104.46 -1.03,-101.83 298.71 80
7 08/15/2020 20:42:33 0.46,-104.62 -0.04,-107.03 274.31 80
8 08/17/2020 20:33:02 0.47,-104.63 0.58,-104.08 62.26 80
9 08/19/2020 20:20:51 0.47,-104.63 1.20,-101.12 399.08 80
10 08/20/2020 08:42:05 -0.48,-104.48 -0.08,-106.27 203.69 80
